Location: Firdgum
(53.2488°N, 5.5615°E)
Time: 18:36:24
(UTC+00:00)

Cosmos 2082 Rocket - Pass Details

Date: 08 December 2019
Orbit: 834 x 852 km, 71.0° (Epoch: 26 January)

Event Time Altitude Azimuth Distance (km) Brightness Sun altitude
Exits shadow 06:18:05 - 333° (NNW) 2,813 4.5 -11.1°
Reaches altitude 10° 06:19:09 10° 339° (NNW) 2,474 4.2 -11.0°
Maximum altitude 06:23:56 27° 36° (NE) 1,575 3.8 -10.3°
Drops below altitude 10° 06:28:39 10° 94° (E) 2,456 5.9 -9.7°
Sets 06:31:29 0° 106° (ESE) 3,385 7.4 -9.3°
